Current weather by "City, St" or "zip code"  
 

Current Conditions: Pottstown, Pottstown Limerick Airport, PA

Fair with Haze


70.0 F

Last Updated on Oct 21 2021, 11:54 am EDT
Humidity: 51%
Wind Speed: SW 8.1 mph
Barometer 30.03 in
Dewpoint: 51.1 F
Visibility: 6.00 mi
Precip: --
Heat Index: NA
Wind Chill: NA
Current conditions at:

Pottstown, Pottstown Limerick Airport, PA (KPTW)

Lat: 40.23802 Lon: 75.55487

Local Radar Image active severe weather and emergency alerts image image weather storm and storm spotter reports image weather observation monitoring service image
Local
Radar
Active
Alerts
Storm Reports Obs
Monitoring

Sign-up For Email & Text Message Weather Alert Notification Services



Advertise Here

Observation History for Pottstown, Pottstown Limerick Airport, PA


Time Wind
(mph)
Vis
(mi)
Weather Precip (in) Temperature (F) Relative
Humidity
Wind
Chill
(F)
Heat
Index
(F)
Pressure
Air Dwpt altimeter
(in)
sea level
(mb)
Rmks
11:54 am EDT SW 8.1 6.00 Fair with Haze -- 70.0 51.1 51% NA NA 30.03 1016.7
10:54 am EDT SW 3.5 6.00 Fair with Haze -- 64.0 52.0 65% NA NA 30.05 1017.1
9:54 am EDT N 0.0 5.00 Fair with Haze -- 59.0 52.0 78% NA NA 30.07 1017.9
8:54 am EDT N 0.0 4.00 Fog/Mist -- 53.0 50.0 89% NA NA 30.07 1017.9
7:54 am EDT N 0.0 3.00 Fog/Mist -- 46.0 46.0 100% NA NA 30.06 1017.9
6:54 am EDT N 0.0 4.00 Fog/Mist -- 45.0 45.0 100% NA NA 30.08 1018.2
5:54 am EDT N 0.0 5.00 Fog/Mist -- 45.0 44.1 97% NA NA 30.07 1018.1
4:54 am EDT N 0.0 5.00 Fog/Mist -- 47.0 46.0 97% NA NA 30.07 1018.0
3:54 am EDT N 0.0 5.00 Fog/Mist -- 46.0 46.0 100% NA NA 30.07 1017.9
2:54 am EDT N 0.0 5.00 Fog/Mist -- 48.0 46.0 93% NA NA 30.08 1018.2
1:54 am EDT N 0.0 6.00 Fog/Mist -- 49.0 46.9 93% NA NA 30.07 1018.1
12:54 am EDT N 0.0 6.00 Fog/Mist -- 49.0 46.0 90% NA NA 30.07 1017.8
11:54 pm EDT N 0.0 6.00 Fog/Mist -- 51.0 46.9 86% NA NA 30.07 1018.1
10:54 pm EDT N 0.0 7.00 A Few Clouds -- 53.0 48.0 83% NA NA 30.08 1018.2
9:54 pm EDT N 0.0 6.00 Fair with Haze -- 58.0 48.0 70% NA NA 30.08 1018.2
8:54 pm EDT 3.5 6.00 Partly Cloudy with Haze -- 61.0 48.0 63% NA NA 30.08 1018.2
7:54 pm EDT N 0.0 7.00 Fair -- 62.0 46.9 58% NA NA 30.08 1018.1
6:54 pm EDT SW 3.5 7.00 Fair -- 65.0 48.0 54% NA NA 30.07 1017.9
5:54 pm EDT W 3.5 5.00 Fair with Haze -- 68.0 48.0 49% NA NA 30.05 1017.3
4:54 pm EDT 4.6 6.00 Fair with Haze -- 71.0 46.9 42% NA NA 30.05 1017.4
3:54 pm EDT 4.6 6.00 Fair with Haze -- 73.0 48.9 43% NA NA 30.05 1017.1
2:54 pm EDT 6.9 6.00 Fair with Haze -- 72.0 48.9 44% NA NA 30.05 1017.3
1:54 pm EDT W 5.8 6.00 Fair with Haze -- 71.0 51.1 49% NA NA 30.07 1017.8
12:54 pm EDT NW 10.4 6.00 Fair with Haze -- 70.0 50.0 49% NA NA 30.08 1018.3

Regional Weather Observation


Pottstown, Pottstown Limerick Airport, PA (KPTW)

Fair with Haze
70.0 F

Allentown Queen City Municipal Airport, PA (KXLL)

Fair
72.0 F

Quakertown Airport, PA (KUKT)

Fair
72.0 F

Lehighton Jake Arner Memorial Airport, PA (K22N)

Fair
70.0 F

Allentown, Lehigh Valley International Airport, PA (KABE)

Fair
71.0 F

Pennridge Airport, PA (KCKZ)

Fair
70.0 F

Advertise Here


Advertise Here